Location: Unspecified
(0.0000°N, 0.0000°E)
Time: 09:39:07
(UTC+00:00)

Vanguard 1 - Pass Details

Date: 17 December 2018
Orbit: 650 x 3833 km, 34.3° (Epoch: 17 January)

Event Time Altitude Azimuth Distance (km) Brightness Sun altitude
Rises 22:18:49 0° 222° (SW) 7,287 15.0 -56.7°
Reaches altitude 10° 22:26:32 10° 207° (SSW) 5,662 14.3 -58.0°
Maximum altitude 22:36:39 20° 166° (SSE) 3,892 13.2 -59.7°
Enters shadow 22:37:14 20° 163° (SSE) 3,833 13.1 -59.7°
